Simultaneous Nadir Overpasses (SNOs) Predictions

Prediction of SNOs between GOES-14 and AQUA Satellite Orbit:

Table of predicted SNOs for the next 14.0 days since TLE Epoch: 9/4/2021
Index Date Time (GOES-14) GOES-14 Lat,Lon AQUA Lat,Lon Distance(km) Time Diff (sec)
1 09/05/2021 20:32:35 -0.39,-104.29 -0.30,-103.90 45.31 80
2 09/07/2021 20:20:24 -0.39,-104.29 0.32,-100.94 381.23 80
3 09/08/2021 08:41:39 0.39,-104.18 0.80,-106.09 217.57 80
4 09/10/2021 08:26:48 0.39,-104.17 0.17,-103.14 117.50 80
5 09/10/2021 20:48:13 -0.38,-104.26 -1.24,-108.33 463.32 80
6 09/12/2021 08:14:37 0.39,-104.16 -0.46,-100.18 452.45 80
7 09/12/2021 20:36:02 -0.38,-104.25 -0.60,-105.38 127.79 80
8 09/14/2021 20:26:31 -0.38,-104.24 0.04,-102.43 207.21 80
9 09/15/2021 08:47:45 0.37,-104.17 1.09,-107.58 386.90 80
10 09/17/2021 08:35:35 0.36,-104.16 0.45,-104.62 52.33 80
